Flag for Canada Weather past 2 weeks in Markham, Ontario, Canada

Now
68 °F

Passing clouds.


Feels Like: 68 °F
Forecast: 55 / 70 °F
Wind: 10 mph from Northwest

Location: Toronto Buttonville

Current Time: Jul 2, 2015 at 2:40:12 PM

Latest Report: Jul 2, 2015 at 2:00 PM


Visibility: 15 mi

Pressure: 29.98 "Hg

Humidity: 49%

Dew point: 48 °F

Location of MarkhamLocation

Historic Weather in Markham — Graph

°F

Markham temperature yesterday

Maximum temperature yesterday: 70 °F (at 1:00 PM)
Minimum temperature yesterday: 61 °F (at 12:00 AM)
Average temperature yesterday: 65 °F

Past Weeks' High & Low Weather Summary

 TemperatureHumidityPressure
High79 °F (Jun 18, 2:00 PM)100% (Jun 23, 1:04 AM)30.17 "Hg (Jun 23, 1:04 AM)
Low50 °F (Jun 20, 5:00 AM)33% (Jun 17, 7:00 PM)29.62 "Hg (Jun 23, 5:00 AM)
Average65 °F72%29.92 "Hg
* Reported Jun 17 1:00 PM — Jul 2 1:00 PM, Markham, Weather by CustomWeather, © 2015

Note: Actual official high and low records may vary slightly from our data, if they occured in-between our weather recording intervals... More about our weather records

Advertising

Markham weather history for previous 24 hours

 ConditionsComfort  
Time TempWeatherWind HumidityBarometerVisibility
1:00 PM
Thu, Jul 2
68 °FScattered clouds.12 mph46%30.00 "Hg15 mi
12:00 PM66 °FScattered clouds.10 mph52%29.99 "Hg15 mi
11:00 AM64 °FScattered clouds.8 mph56%30.00 "Hg15 mi
10:00 AM64 °FPassing clouds.9 mph52%29.99 "Hg15 mi
9:00 AM63 °FPassing clouds.6 mph64%29.98 "Hg15 mi
8:00 AM59 °FPassing clouds.5 mph77%29.97 "Hg15 mi
7:00 AM57 °FPassing clouds.2 mph82%29.96 "Hg15 mi
6:00 AM55 °FPassing clouds.9 mph88%29.94 "Hg15 mi
5:00 AM55 °FPassing clouds.2 mph88%29.94 "Hg15 mi
4:00 AM57 °FPassing clouds.6 mph88%29.93 "Hg15 mi
3:00 AM57 °FPassing clouds.7 mph88%29.94 "Hg15 mi
2:00 AM57 °FPassing clouds.9 mph88%29.94 "Hg15 mi
1:00 AM59 °FPassing clouds.9 mph82%29.93 "Hg15 mi
12:00 AM61 °FPassing clouds.6 mph83%29.93 "Hg15 mi
11:00 PM
Wed, Jul 1
61 °FPassing clouds.5 mph77%29.91 "Hg15 mi
10:00 PM61 °FScattered clouds.7 mph77%29.89 "Hg15 mi
9:00 PM64 °FScattered clouds.9 mph73%29.88 "Hg15 mi
8:00 PM68 °FScattered clouds.8 mph69%29.85 "Hg15 mi
7:00 PM70 °FScattered clouds.12 mph64%29.83 "Hg15 mi
6:00 PM70 °FScattered clouds.17 mph60%29.83 "Hg15 mi
5:00 PM70 °FPassing clouds.15 mph60%29.83 "Hg15 mi
4:00 PM70 °FScattered clouds.17 mph69%29.82 "Hg15 mi
3:00 PM68 °FPartly sunny.18 mph73%29.80 "Hg15 mi
2:00 PM70 °FScattered clouds.18 mph69%29.79 "Hg15 mi
Weather by CustomWeather, © 2015

See weather overviewHow to use our weather pages